Weather History for Pittsburg, KS

Change the Weather History Date:

Monday, February 18, 2013

  Actual Average (KJLN) Record (KJLN)
Temperature  
Mean Temperature 46 °F 41 °F  
Max Temperature 59 °F 52 °F 78 °F (1986)
Min Temperature 32 °F 30 °F -3 °F (1993)
Degree Days  
Heating Degree Days 20 24  
Month to date heating degree days 479  
Since 1 July heating degree days 3028  
Cooling Degree Days 0 0  
Month to date cooling degree days 0  
Year to date cooling degree days 0  
Moisture  
Dew Point 37 °F    
Average Humidity 61    
Maximum Humidity 77    
Minimum Humidity 38    
Precipitation  
Precipitation 0.00 in 0.09 in 1.84 in (1974)
Month to date precipitation 1.40  
Year to date precipitation 3.43  
Sea Level Pressure  
Sea Level Pressure 29.75 in    
Wind  
Wind Speed 20 mph (WSW)    
Max Wind Speed 33 mph    
Max Gust Speed 43 mph    
Visibility 10 miles    
Events Thunderstorm    
T = Trace of Precipitation, MM = Missing Value Source: NWS Daily Summary

Daily Weather History Graph

Daily Weather History Graph

Search for Another Location

Airport:

Trip Planner

Search our weather history database for the weather conditions in past years. The results will help you decide how hot, cold, wet, or windy it might be!

Date:

Astronomy

Feb. 18, 2013 Rise Set
Actual Time 7:04 AM CST 6:01 PM CST
Civil Twilight 6:37 AM CST 6:28 PM CST
Nautical Twilight 6:07 AM CST 6:59 PM CST
Astronomical Twilight 5:36 AM CST 7:29 PM CST
Moon 11:51 AM CST (2/18) 1:41 AM CST (2/18)
Length of Visible Light 11h 50m
Length of Day
10h 57m
First Quarter, 58% of the Moon is Illuminated
Feb 18
First Quarter
Feb 25
Full
Mar 4
Last Quarter
Mar 11
New
Mar 19
First Quarter

Hourly Weather History & Observations

Time (CST) Temp. Windchill Dew Point Humidity Pressure Visibility Wind Dir Wind Speed Gust Speed Precip Events Conditions
12:15 AM 55.8 °F - 30.2 °F 38% 29.73 in 10.0 mi SSW 20.7 mph 27.6 mph N/A   Clear
12:35 AM 55.8 °F - 30.2 °F 38% 29.72 in 10.0 mi SSW 20.7 mph 28.8 mph N/A   Clear
12:55 AM 55.8 °F - 30.4 °F 38% 29.72 in 10.0 mi SSW 20.7 mph 31.1 mph N/A   Clear
1:15 AM 55.8 °F - 30.2 °F 38% 29.71 in 10.0 mi SSW 19.6 mph 27.6 mph N/A   Clear
1:35 AM 55.8 °F - 30.7 °F 39% 29.70 in 10.0 mi SSW 20.7 mph 27.6 mph N/A   Clear
1:55 AM 55.8 °F - 31.5 °F 40% 29.70 in 10.0 mi SSW 24.2 mph 31.1 mph N/A   Clear
2:15 AM 55.8 °F - 32.2 °F 41% 29.69 in 10.0 mi SSW 23.0 mph 32.2 mph N/A   Clear
2:35 AM 55.8 °F - 33.3 °F 43% 29.68 in 10.0 mi SSW 18.4 mph 27.6 mph N/A   Clear
2:55 AM 55.8 °F - 34.0 °F 44% 29.67 in 10.0 mi SSW 23.0 mph 31.1 mph N/A   Clear
3:15 AM 55.8 °F - 35.2 °F 46% 29.67 in 10.0 mi SSW 20.7 mph 28.8 mph N/A   Clear
3:35 AM 55.8 °F - 36.5 °F 48% 29.66 in 10.0 mi SSW 19.6 mph 26.5 mph N/A   Clear
3:55 AM 55.8 °F - 37.8 °F 51% 29.65 in 10.0 mi SSW 20.7 mph 29.9 mph N/A   Clear
4:15 AM 55.8 °F - 39.0 °F 53% 29.64 in 10.0 mi SSW 24.2 mph 28.8 mph N/A   Clear
4:35 AM 55.8 °F - 40.1 °F 56% 29.64 in 10.0 mi SSW 21.9 mph 27.6 mph N/A   Clear
4:55 AM 55.4 °F - 40.8 °F 58% 29.64 in 10.0 mi South 20.7 mph 33.4 mph N/A   Clear
5:15 AM 54.9 °F - 40.8 °F 59% 29.63 in 10.0 mi SSW 20.7 mph 33.4 mph N/A   Clear
5:35 AM 55.8 °F - 42.3 °F 60% 29.62 in 10.0 mi SSW 20.7 mph 34.5 mph N/A   Clear
5:55 AM 55.8 °F - 43.5 °F 63% 29.62 in 10.0 mi SSW 25.3 mph 34.5 mph N/A   Scattered Clouds
6:15 AM 55.8 °F - 44.2 °F 65% 29.62 in 10.0 mi SSW 24.2 mph 36.8 mph N/A   Mostly Cloudy
6:35 AM 55.8 °F - 44.8 °F 67% 29.61 in 10.0 mi SSW 23.0 mph 33.4 mph N/A   Overcast
6:55 AM 55.8 °F - 45.0 °F 67% 29.61 in 10.0 mi SSW 19.6 mph 33.4 mph N/A   Overcast
7:15 AM 55.8 °F - 45.5 °F 68% 29.61 in 10.0 mi SSW 24.2 mph 32.2 mph N/A   Overcast
7:35 AM 55.8 °F - 45.5 °F 68% 29.60 in 10.0 mi SSW 27.6 mph 35.7 mph N/A   Overcast
7:55 AM 55.8 °F - 45.5 °F 68% 29.60 in 10.0 mi SSW 26.5 mph 33.4 mph N/A   Overcast
8:15 AM 55.8 °F - 45.5 °F 68% 29.60 in 10.0 mi SSW 26.5 mph 35.7 mph N/A   Overcast
8:35 AM 56.8 °F - 46.4 °F 68% 29.60 in 10.0 mi SSW 28.8 mph 35.7 mph N/A   Overcast
8:55 AM 58.1 °F - 47.3 °F 67% 29.59 in 10.0 mi SSW 26.5 mph 38.0 mph N/A   Overcast
9:15 AM 58.3 °F - 47.1 °F 66% 29.59 in 10.0 mi SSW 29.9 mph 36.8 mph N/A   Overcast
9:35 AM 58.3 °F - 46.8 °F 66% 29.58 in 10.0 mi SSW 27.6 mph 40.3 mph N/A   Overcast
9:55 AM 58.3 °F - 46.8 °F 66% 29.58 in 10.0 mi SSW 27.6 mph 40.3 mph N/A   Mostly Cloudy
10:15 AM 58.3 °F - 46.9 °F 66% 29.58 in 10.0 mi SSW 33.4 mph 42.6 mph N/A   Mostly Cloudy
10:35 AM 58.5 °F - 47.5 °F 67% 29.58 in 10.0 mi SW 24.2 mph 40.3 mph N/A   Mostly Cloudy
10:55 AM 58.3 °F - 47.7 °F 68% 29.59 in 10.0 mi SW 21.9 mph 29.9 mph N/A   Mostly Cloudy
11:15 AM 59.4 °F - 48.2 °F 67% 29.58 in 10.0 mi SSW 29.9 mph 40.3 mph N/A   Mostly Cloudy
11:35 AM 59.5 °F - 48.2 °F 66% 29.58 in 10.0 mi SW 28.8 mph 38.0 mph N/A   Mostly Cloudy
11:55 AM 58.3 °F - 47.7 °F 68% 29.58 in 10.0 mi SW 26.5 mph 38.0 mph N/A   Mostly Cloudy
12:15 PM 58.3 °F - 48.9 °F 71% 29.57 in 7.0 mi SW 26.5 mph 33.4 mph N/A   Overcast
12:35 PM 58.1 °F - 50.9 °F 77% 29.57 in 10.0 mi WSW 12.7 mph 20.7 mph N/A   Overcast
12:55 PM 56.1 °F - 48.2 °F 75% 29.58 in 10.0 mi WSW 17.3 mph 27.6 mph N/A   Overcast
1:15 PM 57.6 °F - 43.3 °F 59% 29.58 in 10.0 mi West 23.0 mph 34.5 mph N/A Thunderstorm Overcast
1:35 PM 58.3 °F - 35.4 °F 42% 29.58 in 10.0 mi West 12.7 mph 29.9 mph N/A Thunderstorm Scattered Clouds
1:55 PM 56.8 °F - 36.3 °F 46% 29.61 in 10.0 mi NW 21.9 mph 39.1 mph N/A   Clear
2:15 PM 51.4 °F - 36.7 °F 57% 29.64 in 10.0 mi NW 19.6 mph 35.7 mph N/A   Clear
2:35 PM 50.9 °F - 36.0 °F 57% 29.67 in 10.0 mi NNW 29.9 mph 41.4 mph N/A   Clear
2:55 PM 50.9 °F - 36.1 °F 57% 29.69 in 10.0 mi NNW 21.9 mph 33.4 mph N/A   Clear
3:15 PM 50.9 °F - 36.0 °F 57% 29.71 in 10.0 mi North 24.2 mph 35.7 mph N/A Thunderstorm Scattered Clouds
3:35 PM 50.9 °F - 36.0 °F 57% 29.73 in 10.0 mi NNW 19.6 mph 31.1 mph N/A   Scattered Clouds
3:55 PM 50.9 °F - 34.3 °F 53% 29.75 in 10.0 mi North 17.3 mph 32.2 mph N/A   Scattered Clouds
4:15 PM 50.9 °F - 33.3 °F 51% 29.77 in 10.0 mi NNW 18.4 mph 31.1 mph N/A   Mostly Cloudy
4:35 PM 48.9 °F - 34.0 °F 56% 29.81 in 10.0 mi NNW 20.7 mph 32.2 mph N/A   Overcast
5:15 PM 43.3 °F 35.5 °F 31.3 °F 62% 29.85 in 10.0 mi NNW 17.3 mph 31.1 mph N/A   Mostly Cloudy
5:35 PM 43.0 °F 35.1 °F 31.6 °F 64% 29.87 in 10.0 mi NNW 17.3 mph 26.5 mph N/A   Overcast
5:55 PM 42.4 °F 35.7 °F 31.3 °F 65% 29.89 in 10.0 mi North 12.7 mph 20.7 mph N/A   Overcast
6:15 PM 41.7 °F 34.8 °F 30.7 °F 65% 29.91 in 10.0 mi NNW 12.7 mph 28.8 mph N/A   Overcast
6:35 PM 40.6 °F 33.8 °F 29.8 °F 65% 29.93 in 10.0 mi North 11.5 mph 20.7 mph N/A   Scattered Clouds
6:55 PM 39.7 °F 33.2 °F 29.7 °F 67% 29.96 in 10.0 mi NNW 10.4 mph - N/A   Clear
7:15 PM 38.1 °F 32.3 °F 28.9 °F 70% 29.97 in 10.0 mi NNW 8.1 mph - N/A   Clear
7:35 PM 37.9 °F 31.5 °F 28.9 °F 70% 29.99 in 10.0 mi NNW 9.2 mph - N/A   Clear
7:55 PM 37.9 °F 30.9 °F 28.6 °F 69% 30.00 in 10.0 mi NNW 10.4 mph - N/A   Clear
8:15 PM 37.9 °F 31.5 °F 28.2 °F 68% 30.02 in 10.0 mi NNW 9.2 mph - N/A   Clear
8:35 PM 36.7 °F 32.0 °F 27.0 °F 68% 30.02 in 10.0 mi North 5.8 mph - N/A   Clear
8:55 PM 35.6 °F 31.7 °F 25.9 °F 68% 30.04 in 10.0 mi North 4.6 mph - N/A   Clear
9:15 PM 35.6 °F 30.7 °F 26.8 °F 70% 30.05 in 10.0 mi NNW 5.8 mph - N/A   Clear
9:35 PM 35.6 °F 31.7 °F 27.1 °F 71% 30.06 in 10.0 mi NNW 4.6 mph - N/A   Clear
9:55 PM 35.4 °F 31.5 °F 27.5 °F 73% 30.08 in 10.0 mi NNW 4.6 mph - N/A   Clear
10:15 PM 35.4 °F 29.7 °F 27.9 °F 74% 30.10 in 10.0 mi NNW 6.9 mph - N/A   Clear
10:35 PM 35.6 °F 30.7 °F 27.0 °F 71% 30.11 in 10.0 mi NNW 5.8 mph - N/A   Clear
10:55 PM 34.0 °F 27.2 °F 25.2 °F 70% 30.11 in 10.0 mi NNW 8.1 mph - N/A   Clear
11:15 PM 32.9 °F 25.3 °F 23.9 °F 69% 30.12 in 10.0 mi NNW 9.2 mph - N/A   Clear
11:35 PM 32.9 °F 25.3 °F 22.5 °F 65% 30.12 in 10.0 mi North 9.2 mph - N/A   Clear
11:55 PM 32.9 °F 25.3 °F 21.9 °F 64% 30.12 in 10.0 mi North 9.2 mph - N/A   Clear